Location: Taipo
(41.0000°S, 175.9500°E)
Time: 11:24:52
(UTC+00:00)

Helios 1B rocket - Pass Details

Date: 18 April 2024
Orbit: 535 x 546 km, 98.2° (Epoch: 24 May)

Event Time Altitude Azimuth Distance (km) Brightness Sun altitude
Rises 17:51:57 0° 18° (NNE) 2,697 6.2 -11.7°
Reaches altitude 10° 17:54:04 10° 19° (NNE) 1,811 5.3 -11.3°
Maximum altitude 17:57:58 76° 104° (ESE) 569 2.5 -10.6°
Drops below altitude 10° 18:01:55 10° 190° (S) 1,831 4.8 -9.8°
Sets 18:04:03 0° 191° (S) 2,730 5.7 -9.4°
